����������;��������(kWh)
2016-12-26 00:00;85,1
2016-12-26 00:15;84
2016-12-26 00:30;83,1
2016-12-26 00:45;83
2016-12-26 01:00;84
2016-12-26 01:15;84,1
2016-12-26 01:30;84,3
2016-12-26 01:45;83,7
2016-12-26 02:00;83,2
2016-12-26 02:15;84,4
2016-12-26 02:30;83,95
2016-12-26 02:45;83,1
2016-12-26 03:00;84,65
2016-12-26 03:15;84,45
2016-12-26 03:30;84,45
2016-12-26 03:45;85,65
2016-12-26 04:00;83,15
2016-12-26 04:15;83,55
2016-12-26 04:30;83,6
2016-12-26 04:45;84,35
2016-12-26 05:00;85,05
2016-12-26 05:15;84,4
2016-12-26 05:30;83,85
2016-12-26 05:45;83,9
2016-12-26 06:00;84,7
2016-12-26 06:15;84,1
2016-12-26 06:30;84,2
2016-12-26 06:45;82,05
2016-12-26 07:00;82,6
2016-12-26 07:15;85,15
2016-12-26 07:30;84,65
2016-12-26 07:45;91,7
2016-12-26 08:00;94,15
2016-12-26 08:15;92,9
2016-12-26 08:30;93,7
2016-12-26 08:45;93,9
2016-12-26 09:00;94
2016-12-26 09:15;91,95
2016-12-26 09:30;90,45
2016-12-26 09:45;90,2
2016-12-26 10:00;87,1
2016-12-26 10:15;85
2016-12-26 10:30;84,75
2016-12-26 10:45;90,65
2016-12-26 11:00;84,4
2016-12-26 11:15;90,95
2016-12-26 11:30;89,7
2016-12-26 11:45;91,2
2016-12-26 12:00;91,45
2016-12-26 12:15;90,35
2016-12-26 12:30;91,05
2016-12-26 12:45;91,6
2016-12-26 13:00;90,85
2016-12-26 13:15;87,5
2016-12-26 13:30;91,2
2016-12-26 13:45;88,95
2016-12-26 14:00;86,7
2016-12-26 14:15;93,3
2016-12-26 14:30;96,4
2016-12-26 14:45;92,15
2016-12-26 15:00;94,8
2016-12-26 15:15;99,45
2016-12-26 15:30;95,95
2016-12-26 15:45;88,45
2016-12-26 16:00;90,4
2016-12-26 16:15;95,8
2016-12-26 16:30;89,45
2016-12-26 16:45;87,95
2016-12-26 17:00;87,7
2016-12-26 17:15;91,95
2016-12-26 17:30;89,25
2016-12-26 17:45;91,1
2016-12-26 18:00;100,8
2016-12-26 18:15;97,8
2016-12-26 18:30;94,5
2016-12-26 18:45;94,35
2016-12-26 19:00;98,75
2016-12-26 19:15;91
2016-12-26 19:30;90,3
2016-12-26 19:45;90,9
2016-12-26 20:00;93,85
2016-12-26 20:15;92,35
2016-12-26 20:30;90
2016-12-26 20:45;94,45
2016-12-26 21:00;94,05
2016-12-26 21:15;91,1
2016-12-26 21:30;94
2016-12-26 21:45;92,6
2016-12-26 22:00;91,15
2016-12-26 22:15;99,5
2016-12-26 22:30;95,45
2016-12-26 22:45;94,7
2016-12-26 23:00;95,3
2016-12-26 23:15;90,8
2016-12-26 23:30;87,2
2016-12-26 23:45;84,5
2016-12-27 00:00;90,15
2016-12-27 00:15;86,6
2016-12-27 00:30;85,75
2016-12-27 00:45;86,7
2016-12-27 01:00;89,35
2016-12-27 01:15;82
2016-12-27 01:30;79,65
2016-12-27 01:45;80
2016-12-27 02:00;79,3
2016-12-27 02:15;81,4
2016-12-27 02:30;79,4
2016-12-27 02:45;80,55
2016-12-27 03:00;80
2016-12-27 03:15;86,3
2016-12-27 03:30;88
2016-12-27 03:45;85,95
2016-12-27 04:00;86,15
2016-12-27 04:15;87,45
2016-12-27 04:30;87,9
2016-12-27 04:45;87,7
2016-12-27 05:00;77,55
2016-12-27 05:15;77,95
2016-12-27 05:30;76,95
2016-12-27 05:45;78,9
2016-12-27 06:00;77,95
2016-12-27 06:15;77,75
2016-12-27 06:30;77,3
2016-12-27 06:45;77,85
2016-12-27 07:00;77,95
2016-12-27 07:15;82,6
2016-12-27 07:30;97,95
2016-12-27 07:45;89,4
2016-12-27 08:00;93,8
2016-12-27 08:15;114,6
2016-12-27 08:30;130,2
2016-12-27 08:45;134,9
2016-12-27 09:00;138
2016-12-27 09:15;155,9
2016-12-27 09:30;195,4
2016-12-27 09:45;145,25
2016-12-27 10:00;151,85
2016-12-27 10:15;156,35
2016-12-27 10:30;155,8
2016-12-27 10:45;173,95
2016-12-27 11:00;174,7
2016-12-27 11:15;173,25
2016-12-27 11:30;180,75
2016-12-27 11:45;176,4
2016-12-27 12:00;169,3
2016-12-27 12:15;173,65
2016-12-27 12:30;163,9
2016-12-27 12:45;161,6
2016-12-27 13:00;164,25
2016-12-27 13:15;156,75
2016-12-27 13:30;163
2016-12-27 13:45;161,55
2016-12-27 14:00;149,05
2016-12-27 14:15;161,95
2016-12-27 14:30;157,8
2016-12-27 14:45;146,1
2016-12-27 15:00;149,6
2016-12-27 15:15;130,9
2016-12-27 15:30;131,85
2016-12-27 15:45;128,8
2016-12-27 16:00;124,15
2016-12-27 16:15;119
2016-12-27 16:30;111,8
2016-12-27 16:45;110,5
2016-12-27 17:00;108,95
2016-12-27 17:15;99,15
2016-12-27 17:30;101,45
2016-12-27 17:45;102,2
2016-12-27 18:00;108,05
2016-12-27 18:15;108,8
2016-12-27 18:30;111,2
2016-12-27 18:45;107,8
2016-12-27 19:00;103,9
2016-12-27 19:15;104,25
2016-12-27 19:30;101,85
2016-12-27 19:45;93,6
2016-12-27 20:00;89,4
2016-12-27 20:15;97,6
2016-12-27 20:30;94,3
2016-12-27 20:45;91,15
2016-12-27 21:00;88,75
2016-12-27 21:15;94,1
2016-12-27 21:30;85,8
2016-12-27 21:45;89,4
2016-12-27 22:00;83,6
2016-12-27 22:15;91,1
2016-12-27 22:30;91,45
2016-12-27 22:45;87,65
2016-12-27 23:00;93,45
2016-12-27 23:15;83,25
2016-12-27 23:30;81,7
2016-12-27 23:45;82,5
2016-12-28 00:00;82,7
2016-12-28 00:15;82,4
2016-12-28 00:30;80,9
2016-12-28 00:45;79,3
2016-12-28 01:00;79,95
2016-12-28 01:15;80,1
2016-12-28 01:30;81,35
2016-12-28 01:45;79,4
2016-12-28 02:00;79,55
2016-12-28 02:15;80,65
2016-12-28 02:30;80,6
2016-12-28 02:45;81,5
2016-12-28 03:00;80,2
2016-12-28 03:15;81,3
2016-12-28 03:30;81,65
2016-12-28 03:45;81,75
2016-12-28 04:00;80,55
2016-12-28 04:15;80,3
2016-12-28 04:30;80,15
2016-12-28 04:45;81
2016-12-28 05:00;86
2016-12-28 05:15;95,45
2016-12-28 05:30;96,45
2016-12-28 05:45;99,7
2016-12-28 06:00;96,1
2016-12-28 06:15;91,95
2016-12-28 06:30;90
2016-12-28 06:45;89,45
2016-12-28 07:00;84,5
2016-12-28 07:15;91,2
2016-12-28 07:30;126,85
2016-12-28 07:45;106,15
2016-12-28 08:00;102,75
2016-12-28 08:15;111,55
2016-12-28 08:30;120,95
2016-12-28 08:45;131,15
2016-12-28 09:00;132,45
2016-12-28 09:15;143,25
2016-12-28 09:30;150,3
2016-12-28 09:45;188,2
2016-12-28 10:00;148,75
2016-12-28 10:15;152,45
2016-12-28 10:30;164,2
2016-12-28 10:45;170,25
2016-12-28 11:00;163,45
2016-12-28 11:15;170,4
2016-12-28 11:30;176,5
2016-12-28 11:45;182,4
2016-12-28 12:00;172,65
2016-12-28 12:15;180,25
2016-12-28 12:30;173,15
2016-12-28 12:45;179,8
2016-12-28 13:00;166,25
2016-12-28 13:15;166,5
2016-12-28 13:30;172,95
2016-12-28 13:45;161,6
2016-12-28 14:00;162,8
2016-12-28 14:15;166,55
2016-12-28 14:30;158,35
2016-12-28 14:45;165,75
2016-12-28 15:00;153,1
2016-12-28 15:15;145,95
2016-12-28 15:30;130,15
2016-12-28 15:45;130,05
2016-12-28 16:00;129,45
2016-12-28 16:15;123,55
2016-12-28 16:30;119,65
2016-12-28 16:45;116,2
2016-12-28 17:00;111,9
2016-12-28 17:15;110,7
2016-12-28 17:30;108,2
2016-12-28 17:45;110,2
2016-12-28 18:00;105,6
2016-12-28 18:15;112,3
2016-12-28 18:30;111,25
2016-12-28 18:45;104,6
2016-12-28 19:00;102,2
2016-12-28 19:15;91,9
2016-12-28 19:30;89,55
2016-12-28 19:45;90,55
2016-12-28 20:00;88,3
2016-12-28 20:15;88,3
2016-12-28 20:30;88
2016-12-28 20:45;85,15
2016-12-28 21:00;89,25
2016-12-28 21:15;87,8
2016-12-28 21:30;87,55
2016-12-28 21:45;86,7
2016-12-28 22:00;87,55
2016-12-28 22:15;95,3
2016-12-28 22:30;96,45
2016-12-28 22:45;92,5
2016-12-28 23:00;95,1
2016-12-28 23:15;87,65
2016-12-28 23:30;87,6
2016-12-28 23:45;87,5
2016-12-29 00:00;87,85
2016-12-29 00:15;85,1
2016-12-29 00:30;84,6
2016-12-29 00:45;85
2016-12-29 01:00;90,25
2016-12-29 01:15;84,35
2016-12-29 01:30;83,5
2016-12-29 01:45;85,35
2016-12-29 02:00;85,45
2016-12-29 02:15;84,9
2016-12-29 02:30;79,6
2016-12-29 02:45;84,1
2016-12-29 03:00;84,05
2016-12-29 03:15;84,7
2016-12-29 03:30;85,65
2016-12-29 03:45;86,55
2016-12-29 04:00;86
2016-12-29 04:15;83,85
2016-12-29 04:30;83,7
2016-12-29 04:45;83,9
2016-12-29 05:00;85,5
2016-12-29 05:15;85,4
2016-12-29 05:30;84,55
2016-12-29 05:45;87,85
2016-12-29 06:00;95,9
2016-12-29 06:15;98,6
2016-12-29 06:30;103,05
2016-12-29 06:45;104,85
2016-12-29 07:00;110,6
2016-12-29 07:15;112,45
2016-12-29 07:30;122,6
2016-12-29 07:45;113,75
2016-12-29 08:00;125,3
2016-12-29 08:15;120,5
2016-12-29 08:30;120,7
2016-12-29 08:45;128,2
2016-12-29 09:00;139,95
2016-12-29 09:15;180,7
2016-12-29 09:30;150,35
2016-12-29 09:45;142,05
2016-12-29 10:00;156,25
2016-12-29 10:15;160,05
2016-12-29 10:30;153,6
2016-12-29 10:45;158,5
2016-12-29 11:00;162,8
2016-12-29 11:15;161
2016-12-29 11:30;169
2016-12-29 11:45;169,3
2016-12-29 12:00;159,7
2016-12-29 12:15;148,55
2016-12-29 12:30;137,4
2016-12-29 12:45;137,7
2016-12-29 13:00;126,3
2016-12-29 13:15;119,95
2016-12-29 13:30;119,25
2016-12-29 13:45;113,8
2016-12-29 14:00;110,5
2016-12-29 14:15;113,55
2016-12-29 14:30;113,05
2016-12-29 14:45;109,45
2016-12-29 15:00;106,25
2016-12-29 15:15;103,45
2016-12-29 15:30;100,9
2016-12-29 15:45;106,85
2016-12-29 16:00;106,3
2016-12-29 16:15;105,8
2016-12-29 16:30;105,1
2016-12-29 16:45;106,05
2016-12-29 17:00;112,9
2016-12-29 17:15;111,45
2016-12-29 17:30;112,9
2016-12-29 17:45;115,15
2016-12-29 18:00;113,85
2016-12-29 18:15;117,45
2016-12-29 18:30;118
2016-12-29 18:45;114,55
2016-12-29 19:00;116,65
2016-12-29 19:15;107,15
2016-12-29 19:30;108,1
2016-12-29 19:45;110,3
2016-12-29 20:00;108,3
2016-12-29 20:15;101,1
2016-12-29 20:30;104,3
2016-12-29 20:45;105,45
2016-12-29 21:00;102,2
2016-12-29 21:15;99,75
2016-12-29 21:30;98,75
2016-12-29 21:45;98,05
2016-12-29 22:00;96,55
2016-12-29 22:15;104,75
2016-12-29 22:30;105,1
2016-12-29 22:45;101,15
2016-12-29 23:00;103
2016-12-29 23:15;86,25
2016-12-29 23:30;85
2016-12-29 23:45;85,35
2016-12-30 00:00;86,55
2016-12-30 00:15;85,2
2016-12-30 00:30;84,8
2016-12-30 00:45;85,75
2016-12-30 01:00;85,75
2016-12-30 01:15;85,65
2016-12-30 01:30;83,15
2016-12-30 01:45;83,5
2016-12-30 02:00;85
2016-12-30 02:15;84,75
2016-12-30 02:30;81,55
2016-12-30 02:45;84,3
2016-12-30 03:00;86,7
2016-12-30 03:15;86,3
2016-12-30 03:30;85,15
2016-12-30 03:45;86,35
2016-12-30 04:00;86,4
2016-12-30 04:15;85,5
2016-12-30 04:30;84,5
2016-12-30 04:45;86,9
2016-12-30 05:00;88,3
2016-12-30 05:15;85
2016-12-30 05:30;83,45
2016-12-30 05:45;82,1
2016-12-30 06:00;84,95
2016-12-30 06:15;93,8
2016-12-30 06:30;95,85
2016-12-30 06:45;94,8
2016-12-30 07:00;95,05
2016-12-30 07:15;100,9
2016-12-30 07:30;96,45
2016-12-30 07:45;94,8
2016-12-30 08:00;94,1
2016-12-30 08:15;91,95
2016-12-30 08:30;89,1
2016-12-30 08:45;93,9
2016-12-30 09:00;102,05
2016-12-30 09:15;100,1
2016-12-30 09:30;101,85
2016-12-30 09:45;103,95
2016-12-30 10:00;103,35
2016-12-30 10:15;104,3
2016-12-30 10:30;101,75
2016-12-30 10:45;98,4
2016-12-30 11:00;94,95
2016-12-30 11:15;100,4
2016-12-30 11:30;102,4
2016-12-30 11:45;104,15
2016-12-30 12:00;102,85
2016-12-30 12:15;105,2
2016-12-30 12:30;102,9
2016-12-30 12:45;102,4
2016-12-30 13:00;107,1
2016-12-30 13:15;109,15
2016-12-30 13:30;108,15
2016-12-30 13:45;105,45
2016-12-30 14:00;102,75
2016-12-30 14:15;103,25
2016-12-30 14:30;102
2016-12-30 14:45;104,25
2016-12-30 15:00;100,9
2016-12-30 15:15;100,65
2016-12-30 15:30;102,2
2016-12-30 15:45;104,95
2016-12-30 16:00;100,4
2016-12-30 16:15;101,9
2016-12-30 16:30;100,4
2016-12-30 16:45;100,7
2016-12-30 17:00;99,7
2016-12-30 17:15;104,8
2016-12-30 17:30;107,2
2016-12-30 17:45;109,3
2016-12-30 18:00;111,8
2016-12-30 18:15;111,15
2016-12-30 18:30;109,75
2016-12-30 18:45;103,7
2016-12-30 19:00;106,15
2016-12-30 19:15;101,15
2016-12-30 19:30;100,7
2016-12-30 19:45;99,3
2016-12-30 20:00;96,4
2016-12-30 20:15;95,9
2016-12-30 20:30;97,5
2016-12-30 20:45;95,5
2016-12-30 21:00;92,55
2016-12-30 21:15;93,75
2016-12-30 21:30;91,15
2016-12-30 21:45;89,45
2016-12-30 22:00;89,8
2016-12-30 22:15;97,6
2016-12-30 22:30;95,65
2016-12-30 22:45;92,45
2016-12-30 23:00;97
2016-12-30 23:15;90,05
2016-12-30 23:30;81,7
2016-12-30 23:45;80,1
2016-12-31 00:00;82,45
2016-12-31 00:15;82,2
2016-12-31 00:30;76,15
2016-12-31 00:45;82,2
2016-12-31 01:00;81,05
2016-12-31 01:15;80,8
2016-12-31 01:30;81,45
2016-12-31 01:45;84,85
2016-12-31 02:00;87,7
2016-12-31 02:15;86,4
2016-12-31 02:30;86,9
2016-12-31 02:45;87,1
2016-12-31 03:00;89,4
2016-12-31 03:15;88,85
2016-12-31 03:30;87,65
2016-12-31 03:45;88,9
2016-12-31 04:00;86,15
2016-12-31 04:15;81,75
2016-12-31 04:30;82,95
2016-12-31 04:45;81,6
2016-12-31 05:00;81
2016-12-31 05:15;82,45
2016-12-31 05:30;82,7
2016-12-31 05:45;81,5
2016-12-31 06:00;80,6
2016-12-31 06:15;82,05
2016-12-31 06:30;80,05
2016-12-31 06:45;80,3
2016-12-31 07:00;79,55
2016-12-31 07:15;79,95
2016-12-31 07:30;80,1
2016-12-31 07:45;75,65
2016-12-31 08:00;76,15
2016-12-31 08:15;74,75
2016-12-31 08:30;74,05
2016-12-31 08:45;74,15
2016-12-31 09:00;74
2016-12-31 09:15;74,25
2016-12-31 09:30;74,7
2016-12-31 09:45;75,15
2016-12-31 10:00;76,6
2016-12-31 10:15;75,05
2016-12-31 10:30;74
2016-12-31 10:45;76,35
2016-12-31 11:00;79,25
2016-12-31 11:15;76,75
2016-12-31 11:30;77,25
2016-12-31 11:45;77,35
2016-12-31 12:00;80,95
2016-12-31 12:15;80,1
2016-12-31 12:30;79,05
2016-12-31 12:45;79,15
2016-12-31 13:00;79,45
2016-12-31 13:15;76,2
2016-12-31 13:30;75,1
2016-12-31 13:45;75,5
2016-12-31 14:00;75,55
2016-12-31 14:15;78,4
2016-12-31 14:30;79,3
2016-12-31 14:45;80,25
2016-12-31 15:00;80,15
2016-12-31 15:15;83,6
2016-12-31 15:30;83
2016-12-31 15:45;83,7
2016-12-31 16:00;86,25
2016-12-31 16:15;85,85
2016-12-31 16:30;81,1
2016-12-31 16:45;78,9
2016-12-31 17:00;79,05
2016-12-31 17:15;80,9
2016-12-31 17:30;79,9
2016-12-31 17:45;83,55
2016-12-31 18:00;85,15
2016-12-31 18:15;87,7
2016-12-31 18:30;88,3
2016-12-31 18:45;83,35
2016-12-31 19:00;80,15
2016-12-31 19:15;80,65
2016-12-31 19:30;84,45
2016-12-31 19:45;87,15
2016-12-31 20:00;86,15
2016-12-31 20:15;87,15
2016-12-31 20:30;86,55
2016-12-31 20:45;88,1
2016-12-31 21:00;87,65
2016-12-31 21:15;90,1
2016-12-31 21:30;84
2016-12-31 21:45;79
2016-12-31 22:00;80,8
2016-12-31 22:15;87,4
2016-12-31 22:30;89,8
2016-12-31 22:45;90,65
2016-12-31 23:00;94,9
2016-12-31 23:15;82,1
2016-12-31 23:30;84,2
2016-12-31 23:45;85,3
2017-01-01 00:00;84,1
2017-01-01 00:15;81,95
2017-01-01 00:30;83,85
2017-01-01 00:45;82,05
2017-01-01 01:00;81,9
2017-01-01 01:15;84,3
2017-01-01 01:30;81,9
2017-01-01 01:45;83
2017-01-01 02:00;86,3
2017-01-01 02:15;85,5
2017-01-01 02:30;87,05
2017-01-01 02:45;86,4
2017-01-01 03:00;84,95
2017-01-01 03:15;86,2
2017-01-01 03:30;87,8
2017-01-01 03:45;87,4
2017-01-01 04:00;87,2
2017-01-01 04:15;84,4
2017-01-01 04:30;85,6
2017-01-01 04:45;87,8
2017-01-01 05:00;87,1
2017-01-01 05:15;88,3
2017-01-01 05:30;84,9
2017-01-01 05:45;85,05
2017-01-01 06:00;84,8
2017-01-01 06:15;85,4
2017-01-01 06:30;85,85
2017-01-01 06:45;84,25
2017-01-01 07:00;85,45
2017-01-01 07:15;86,2
2017-01-01 07:30;81,85
2017-01-01 07:45;81,9
2017-01-01 08:00;82,95
2017-01-01 08:15;81,7
2017-01-01 08:30;80,75
2017-01-01 08:45;79,55
2017-01-01 09:00;80,5
2017-01-01 09:15;79,6
2017-01-01 09:30;76,85
2017-01-01 09:45;78,2
2017-01-01 10:00;79
2017-01-01 10:15;79,85
2017-01-01 10:30;78,55
2017-01-01 10:45;79,75
2017-01-01 11:00;81,55
2017-01-01 11:15;79,55
2017-01-01 11:30;80,05
2017-01-01 11:45;81,7
2017-01-01 12:00;80,1
2017-01-01 12:15;80,1
2017-01-01 12:30;80,8
2017-01-01 12:45;80,6
2017-01-01 13:00;77,9
2017-01-01 13:15;79,15
2017-01-01 13:30;76,75
2017-01-01 13:45;77,9
2017-01-01 14:00;77,85
2017-01-01 14:15;77,35
2017-01-01 14:30;76,45
2017-01-01 14:45;77,4
2017-01-01 15:00;79,1
2017-01-01 15:15;77,6
2017-01-01 15:30;80,3
2017-01-01 15:45;85,2
2017-01-01 16:00;82,25
2017-01-01 16:15;85,5
2017-01-01 16:30;85,15
2017-01-01 16:45;85,65
2017-01-01 17:00;86,4
2017-01-01 17:15;81,5
2017-01-01 17:30;79,95
2017-01-01 17:45;84,05
2017-01-01 18:00;83,8
2017-01-01 18:15;87,35
2017-01-01 18:30;88,45
2017-01-01 18:45;84,85
2017-01-01 19:00;86,2
2017-01-01 19:15;86,85
2017-01-01 19:30;87,45
2017-01-01 19:45;86,4
2017-01-01 20:00;84,4
2017-01-01 20:15;85,65
2017-01-01 20:30;86,85
2017-01-01 20:45;83,9
2017-01-01 21:00;86,15
2017-01-01 21:15;87,7
2017-01-01 21:30;86,1
2017-01-01 21:45;85,7
2017-01-01 22:00;85,15
2017-01-01 22:15;93
2017-01-01 22:30;91,3
2017-01-01 22:45;88,75
2017-01-01 23:00;94,55
2017-01-01 23:15;86,35
2017-01-01 23:30;83,25
2017-01-01 23:45;84,85

